(53814) = 1995 VJ1 = 2000 EH137

Discovered at Eskridge on 2000-03-12 by Farpoint.

Orbit

Orbit type: Main Belt

Note: WebGL enabled browser required.

epoch2024-03-31.0
epoch JD2460400.5
perihelion date2022-05-21.25834
perihelion JD2459720.75834
argument of perihelion (°)32.11748
ascending node (°)26.31913
inclination (°)3.19423
eccentricity0.1187950
perihelion distance (AU)1.9563189
Tisserand w.r.t. Jupiter3.6
ΔV w.r.t. Earth (km/sec)8.7
semimajor axis (AU)2.2200497
mean anomaly (°)202.53668
mean daily motion (°/day)0.29796130
aphelion distance (AU)2.484
period (years)3.31
P-vector [x]0.52380778
P-vector [y]0.76928803
P-vector [z]0.36581598
Q-vector [x]-0.85147817
Q-vector [y]0.46039369
Q-vector [z]0.25104298
absolute magnitude16.45
phase slope0.15
uncertainty0
referenceMPEC 2024-E179
observations used1064
oppositions18
arc length (days)10014
first opposition used1995
last opposition used2023
residual rms (arc-secs)0.67
perturbers coarse indicatorM-v
perturbers precise indicator003Ek
first observation date used1995-11-15.0
last observation date used2023-04-16.0
computer nameMPCLINUX
JD of orbit computation2456847.813412
perihelion JD uncertainty (days)7.7320E-05
argument of perihelion uncertainty (°)7.4997E-05
ascending node uncertainty (°)7.1625E-05
inclination uncertainty (°)4.2865E-06
eccentricity uncertainty 3.6697E-08
perihelion distance uncertainty (AU)8.1229E-08
Minimum Orbit Intersection Distances (in AU)
for orbit epoch: 2460400.5, reference: E2024-EH9
Mercury1.64416
Venus1.23569
Earth0.96947
Mars0.41842
Jupiter2.79896
Saturn7.03045
Uranus16.1215
Neptune27.8192

Observations

1084 total observations over interval: 1995 11 15.57419 – 2023 04 16.582775
These data are available for download (format description).

Date (UT) J2000 RA J2000 Dec Magn Location Ref
1995 11 15.57419 03 03 46.52 +20 05 24.9 17.7 V 400 – Kitami MPC 26028
1995 11 15.59564 03 03 45.08 +20 05 20.1   400 – Kitami MPC 26028
1995 11 16.47392 03 02 47.50 +20 03 24.6 18.0 V 400 – Kitami MPC 26028
1995 11 16.49117 03 02 46.37 +20 03 23.1   400 – Kitami MPC 26028
1995 11 21.50322 02 57 26.32 +19 51 57.1 18.3 V 400 – Kitami MPC 26028
1995 11 21.54943 02 57 23.43 +19 51 50.6   400 – Kitami MPC 26028
1995 11 22.53598 02 56 23.39 +19 49 33.4 18.7 V 400 – Kitami MPC 26028
1995 11 22.55071 02 56 22.41 +19 49 30.8   400 – Kitami MPC 26028
1995 11 25.51547 02 53 29.17 +19 42 40.8 18.3 V 400 – Kitami MPC 26247
1995 11 25.54792 02 53 27.32 +19 42 36.1   400 – Kitami MPC 26247
1998 09 18.29519 23 09 12.88 -09 24 43.7 18.4 R 699 – Lowell Observatory-LONEOS MPS 51715
1998 09 18.31381 23 09 11.70 -09 24 47.9   699 – Lowell Observatory-LONEOS MPS 51715
1998 09 18.32576 23 09 10.95 -09 24 51.1   699 – Lowell Observatory-LONEOS MPS 51715
2000 03 11.37636 12 00 18.41 +03 06 08.6 19.4   704 – Lincoln Laboratory ETS, New Mexico MPS 12477
2000 03 11.39109 12 00 17.51 +03 06 13.4 19.8   704 – Lincoln Laboratory ETS, New Mexico MPS 12477
2000 03 11.40799 12 00 16.41 +03 06 18.7 19.3   704 – Lincoln Laboratory ETS, New Mexico MPS 12477
2000 03 11.42075 12 00 15.60 +03 06 22.4 19.5   704 – Lincoln Laboratory ETS, New Mexico MPS 12477
2000 03 11.43943 12 00 14.43 +03 06 26.1 19.8   704 – Lincoln Laboratory ETS, New Mexico MPS 12477
2000 03 12.18716 11 59 28.93 +03 10 28.4 18.6 R 734 – Farpoint Observatory, Eskridge MPS 12477
2000 03 12.21620 11 59 27.14 +03 10 38.5 18.9 R 734 – Farpoint Observatory, Eskridge MPS 12477
2000 03 12.23003 11 59 26.24 +03 10 42.4 18.5 R 734 – Farpoint Observatory, Eskridge MPS 12477
2000 03 12.24550 11 59 25.29 +03 10 45.7 18.5 R 734 – Farpoint Observatory, Eskridge MPS 12477
2000 03 25.21894 11 46 02.64 +04 17 11.5 19.2 R 734 – Farpoint Observatory, Eskridge MPS 12477
2000 03 25.22403 11 46 02.27 +04 17 13.1 19.0 R 734 – Farpoint Observatory, Eskridge MPS 12477
2000 03 25.25121 11 46 00.51 +04 17 21.0 19.3 R 734 – Farpoint Observatory, Eskridge MPS 12477
2000 03 25.25726 11 46 00.23 +04 17 21.3 18.6 R 734 – Farpoint Observatory, Eskridge MPS 12477
2000 03 25.26347 11 45 59.72 +04 17 24.3 18.8 R 734 – Farpoint Observatory, Eskridge MPS 12477
2000 03 25.26899 11 45 59.46 +04 17 25.9 19.1 R 734 – Farpoint Observatory, Eskridge MPS 12477
2000 03 26.09958 11 45 10.27 +04 21 16.2 19.2 R 734 – Farpoint Observatory, Eskridge MPS 12477
2000 03 26.10550 11 45 09.91 +04 21 19.2 19.3 R 734 – Farpoint Observatory, Eskridge MPS 12477
2000 03 26.11125 11 45 09.47 +04 21 21.0 18.8 R 734 – Farpoint Observatory, Eskridge MPS 12477
2000 03 26.11706 11 45 09.20 +04 21 20.1 18.9 R 734 – Farpoint Observatory, Eskridge MPS 12477
2000 03 26.32881 11 44 56.41 +04 22 19.8 18.8 R 699 – Lowell Observatory-LONEOS MPS 12477
2000 03 26.34931 11 44 55.08 +04 22 25.5   699 – Lowell Observatory-LONEOS MPS 12477
2000 03 26.36993 11 44 53.85 +04 22 32.0   699 – Lowell Observatory-LONEOS MPS 12477
2000 03 26.39054 11 44 52.58 +04 22 37.1   699 – Lowell Observatory-LONEOS MPS 12477
2000 04 04.17906 11 36 48.78 +04 57 45.4 19.6 R 734 – Farpoint Observatory, Eskridge MPS 12477
2000 04 04.18951 11 36 48.21 +04 57 46.4 19.1 R 734 – Farpoint Observatory, Eskridge MPS 12477
2000 04 04.19488 11 36 48.00 +04 57 48.0 19.3 R 734 – Farpoint Observatory, Eskridge MPS 12477
2000 04 05.15951 11 36 00.42 +05 00 59.9 19.1   704 – Lincoln Laboratory ETS, New Mexico MPS 12477
2000 04 05.17405 11 35 59.66 +05 01 01.8 19.3   704 – Lincoln Laboratory ETS, New Mexico MPS 12477
2000 04 05.19070 11 35 58.84 +05 01 04.6 19.3   704 – Lincoln Laboratory ETS, New Mexico MPS 12477
2001 07 15.23164 20 14 35.14 -25 38 01.7   734 – Farpoint Observatory, Eskridge MPS 32292
2001 07 15.24736 20 14 34.10 -25 38 05.2 18.2 R 734 – Farpoint Observatory, Eskridge MPS 32292
2001 07 19.26956 20 10 06.98 -25 52 59.4 18.7   644 – Palomar Mountain/NEAT MPS 32292
2001 07 19.28016 20 10 06.25 -25 53 01.8 18.8   644 – Palomar Mountain/NEAT MPS 32292
2001 07 19.29087 20 10 05.48 -25 53 04.2 18.9   644 – Palomar Mountain/NEAT MPS 32292
2002 12 01.38479 09 19 09.70 +20 21 32.4 19.5 R 734 – Farpoint Observatory, Eskridge MPS 67647
2002 12 01.40006 09 19 10.25 +20 21 31.9 19.5 R 734 – Farpoint Observatory, Eskridge MPS 67647
2002 12 01.41541 09 19 10.85 +20 21 31.3 20.4 R 734 – Farpoint Observatory, Eskridge MPS 67647
2002 12 31.36889 09 22 29.36 +21 10 27.9 19.1   704 – Lincoln Laboratory ETS, New Mexico MPS 69616
2002 12 31.38367 09 22 28.86 +21 10 30.9 19.6   704 – Lincoln Laboratory ETS, New Mexico MPS 69616
2002 12 31.39834 09 22 28.47 +21 10 34.5 19.6   704 – Lincoln Laboratory ETS, New Mexico MPS 69616
2002 12 31.41331 09 22 28.05 +21 10 38.3 19.5   704 – Lincoln Laboratory ETS, New Mexico MPS 69616
2002 12 31.42835 09 22 27.55 +21 10 41.8 19.2   704 – Lincoln Laboratory ETS, New Mexico MPS 69616
2003 01 05.30710 09 19 44.98 +21 30 54.9 18.9 R 699 – Lowell Observatory-LONEOS MPS 69616
2003 01 05.31773 09 19 44.52 +21 30 57.8   699 – Lowell Observatory-LONEOS MPS 69616
2003 01 05.32844 09 19 44.13 +21 31 01.4   699 – Lowell Observatory-LONEOS MPS 69616
2003 01 05.33907 09 19 43.64 +21 31 03.8   699 – Lowell Observatory-LONEOS MPS 69616
2003 01 05.37873 09 19 42.11 +21 31 13.3 19.4   704 – Lincoln Laboratory ETS, New Mexico MPS 69616
2003 01 05.40370 09 19 40.99 +21 31 20.2 19.8   704 – Lincoln Laboratory ETS, New Mexico MPS 69616
2003 01 05.43705 09 19 39.69 +21 31 28.5 19.5   704 – Lincoln Laboratory ETS, New Mexico MPS 69616
2003 01 05.45207 09 19 38.97 +21 31 32.0 19.4   704 – Lincoln Laboratory ETS, New Mexico MPS 69616
2003 01 05.46699 09 19 38.33 +21 31 36.5 19.6   704 – Lincoln Laboratory ETS, New Mexico MPS 69616
2003 01 09.25756 09 16 55.67 +21 48 53.3 19.6   704 – Lincoln Laboratory ETS, New Mexico MPS 69616
2003 01 09.27229 09 16 55.00 +21 48 57.4 19.3   704 – Lincoln Laboratory ETS, New Mexico MPS 69616
2003 01 09.28744 09 16 54.17 +21 49 00.8 19.7   704 – Lincoln Laboratory ETS, New Mexico MPS 69616
2003 01 09.30223 09 16 53.49 +21 49 05.7 19.3   704 – Lincoln Laboratory ETS, New Mexico MPS 69616
2003 01 09.31688 09 16 52.76 +21 49 09.9 19.5   704 – Lincoln Laboratory ETS, New Mexico MPS 69616
2003 01 27.18869 08 58 53.69 +23 13 40.8 18.1 R 699 – Lowell Observatory-LONEOS MPS 71202
2003 01 27.20662 08 58 52.36 +23 13 44.9   699 – Lowell Observatory-LONEOS MPS 71202
2003 01 27.29365 08 58 46.10 +23 14 08.8   699 – Lowell Observatory-LONEOS MPS 71202
2003 01 27.31160 08 58 44.81 +23 14 12.5   699 – Lowell Observatory-LONEOS MPS 71202
2003 01 31.28871 08 54 07.97 +23 30 22.2 18.2   644 – Palomar Mountain/NEAT MPS 73096
2003 01 31.29538 08 54 07.50 +23 30 23.8 18.0   644 – Palomar Mountain/NEAT MPS 73096
2003 01 31.35756 08 54 02.97 +23 30 38.2 18.2   644 – Palomar Mountain/NEAT MPS 73096
2003 01 31.37184 08 54 01.95 +23 30 41.3 18.0   644 – Palomar Mountain/NEAT MPS 73096
2003 01 31.42239 08 53 58.26 +23 30 52.6 18.2   644 – Palomar Mountain/NEAT MPS 73096
2003 01 31.43877 08 53 57.11 +23 30 56.3 18.3   644 – Palomar Mountain/NEAT MPS 73096
2003 02 01.31352 08 52 56.39 +23 34 12.9 18.5   704 – Lincoln Laboratory ETS, New Mexico MPS 71202
2003 02 01.32870 08 52 55.30 +23 34 16.2 18.9   704 – Lincoln Laboratory ETS, New Mexico MPS 71202
2003 02 01.34386 08 52 54.18 +23 34 19.5 18.7   704 – Lincoln Laboratory ETS, New Mexico MPS 71202
2003 02 01.35908 08 52 53.10 +23 34 23.2 18.9   704 – Lincoln Laboratory ETS, New Mexico MPS 71202
2003 02 01.37438 08 52 51.94 +23 34 26.3 18.9   704 – Lincoln Laboratory ETS, New Mexico MPS 71202
2003 02 02.24827 08 51 51.77 +23 37 36.0 18.8   644 – Palomar Mountain/NEAT MPS 73096
2003 02 02.26931 08 51 50.26 +23 37 40.5 18.5   644 – Palomar Mountain/NEAT MPS 73096
2003 02 02.29069 08 51 48.70 +23 37 45.3 18.7   644 – Palomar Mountain/NEAT MPS 73096
2003 02 04.25298 08 49 33.52 +23 44 26.1 18.3   704 – Lincoln Laboratory ETS, New Mexico MPS 73096
2003 02 04.26832 08 49 32.39 +23 44 29.5 18.5   704 – Lincoln Laboratory ETS, New Mexico MPS 73096
2003 02 04.28356 08 49 31.33 +23 44 32.9 19.0   704 – Lincoln Laboratory ETS, New Mexico MPS 73096
